Location: Zagreb
(45.8000°N, 16.0000°E)
Time: 19:21:29
(UTC+01:00)

BlueWalker 3 - Visible Passes

Search period start: 24 March 2023 00:00
Search period end: 03 April 2023 01:00
Orbit: 497 x 515 km, 53.2° (Epoch: 24 March)

Date Brightness Start Highest point End Pass type
(mag) Time Alt. Az. Time Alt. Az. Time Alt. Az.
24 Mar 2.8 03:51:01 36° SSE 03:51:01 36° SSE 03:53:32 10° SE visible
25 Mar 4.3 03:33:16 14° SE 03:33:16 14° SE 03:33:51 10° SE visible
26 Mar 3.3 21:11:14 10° SSW 21:13:15 26° SSW 21:13:15 26° SSW visible
27 Mar 2.2 20:51:27 10° SSW 20:55:10 44° SE 20:55:38 42° ESE visible
27 Mar 4.9 22:30:03 10° W 22:30:27 12° W 22:30:27 12° W visible
28 Mar 2.2 20:31:39 10° SSW 20:35:22 46° SE 20:37:41 21° ENE visible
28 Mar 3.9 22:10:17 10° W 22:12:29 28° WNW 22:12:29 28° WNW visible
29 Mar 2.2 20:11:47 10° SW 20:15:33 48° SE 20:19:19 10° ENE visible
29 Mar 3.1 21:50:29 10° W 21:54:11 41° NNW 21:54:12 41° NNW visible
30 Mar 2.2 19:51:54 10° SW 19:55:42 49° SE 19:59:28 10° ENE visible
30 Mar 3.1 21:30:38 10° W 21:34:21 41° NNW 21:35:40 30° NNE visible
30 Mar 5.2 23:10:16 10° WNW 23:10:26 11° WNW 23:10:26 11° WNW visible
31 Mar 3.2 21:10:46 10° W 21:14:28 40° NNW 21:16:57 18° NE visible
31 Mar 4.7 22:50:23 10° WNW 22:51:41 17° NW 22:51:41 17° NW visible
01 Apr 3.2 20:50:52 10° W 20:54:34 39° NNW 20:58:02 11° NE visible
01 Apr 4.2 22:30:29 10° WNW 22:32:46 23° NNW 22:32:46 23° NNW visible
02 Apr 3.2 20:30:56 10° W 20:34:37 38° NNW 20:38:17 10° NE visible
02 Apr 3.8 22:10:32 10° WNW 22:13:44 27° N 22:13:44 27° N visible
